Regional Weather Roundup
Issued by NWS

Home | Current Version | Previous Version | Graphics & Text | Print | Product List | Glossary On
Versions: 1 2 3 4 5 6 7 8 9 10 11 12 13 14 15 16 17 18 19 20 21 22 23 24 25 26 27 28 29 30 31 32 33 34 35 36 37 38 39 40 41 42 43 44 45 46 47 48 49 50
000
ASUS43 KDTX 240901
RWRMI
MICHIGAN HOURLY REGIONAL WEATHER ROUNDUP
NATIONAL WEATHER SERVICE DETROIT/PONTIAC MI
500 AM EDT THU APR 24 2014

NOTE: "FAIR" INDICATES FEW OR NO CLOUDS BELOW 12,000 FEET WITH NO
SIGNIFICANT WEATHER AND/OR OBSTRUCTION TO VISIBILITY.

MIZ047>049-052>055-059>063-066>070-074>076-081>083-241000-
SOUTHEAST LOWER MICHIGAN

CITY           SKY/WX    TMP DP  RH WIND       PRES   REMARKS
ADRIAN         CLOUDY    44  32  62 E8        30.13R
ALMA           CLOUDY    37  27  67 E5        30.14R WCI  33
ANN ARBOR      CLOUDY    42  20  41 E6        30.14R
BAD AXE        CLEAR     27  24  85 CALM      30.16R
CARO           PTCLDY    31  27  86 CALM      30.16R
DETROIT CITY   PTCLDY    39  17  41 CALM      30.16R
DETROIT        CLOUDY    41  20  43 CALM      30.15R
FLINT          PTCLDY    36  21  54 CALM      30.15R
GROSSE ILE     MOCLDY    41   5  22 E3        30.14R
HILLSDALE      CLOUDY    46  29  53 SE5       30.10R
HOWELL         MOCLDY    38  22  52 E3        30.14R

CITY           SKY/WX    TMP DP  RH WIND       PRES   REMARKS
JACKSON        CLOUDY    44  31  60 E8        30.11S
LAMBERTVILLE   CLOUDY    46  27  46 SE3       30.14R
LANSING        CLOUDY    43  26  51 E9        30.13R
LAPEER         FAIR      30  27  88 CALM      30.16R
MASON          CLOUDY    41  29  62 E3        30.13R
MONROE         CLOUDY    43  27  52 E3        30.13R
MT. CLEMENS    PTCLDY    33  21  60 NW3       30.15R
PONTIAC        PTCLDY    35  16  45 CALM      30.13R
PORT HOPE        N/A     29  25  85 CALM      30.15R
PORT HURON     CLEAR     27  27 100 CALM      30.16R
TRI CITIES     MOCLDY    38  25  59 E3        30.16R
TROY           PTCLDY    37  14  38 CALM      30.16R
SAGINAW HB     PTCLDY    34  27  75 CALM      30.16R
YPSILANTI      MOCLDY    43  24  47 E3        30.15R
$$
MIZ043>046-050>051-056>058-064>065-071>073-077>080-241000-
SOUTHWEST LOWER MICHIGAN

CITY           SKY/WX    TMP DP  RH WIND       PRES   REMARKS
BATTLE CREEK   CLOUDY    47  26  44 E5        30.10R
BENTON HARBOR  CLOUDY    45  33  63 E7        30.08R
BIG RAPIDS     CLOUDY    39  21  48 CALM      30.12S
COLDWATER      CLOUDY    46  30  54 SE8       30.09R
FREMONT        CLOUDY    42  23  47 SE5       30.11R
HOLLAND        CLOUDY    46  32  58 E6        30.11R
GRAND RAPIDS   CLOUDY    44  31  60 E5        30.11R
IONIA          CLOUDY    39  32  75 NE5       30.11R
KALAMAZOO      CLOUDY    47  30  51 CALM      30.10R
LUDINGTON      CLOUDY    39  24  54 E6        30.10F
MARSHALL       CLOUDY    44  29  55 CALM      30.10R
MOUNT PLEASANT CLOUDY    35  27  72 CALM      30.14S
MUSKEGON       CLOUDY    45  26  47 E6        30.11R
SOUTH HAVEN    CLOUDY    45  31  58 E6        30.09R
$$
MIZ016>042-241000-
NORTHERN LOWER MICHIGAN

CITY           SKY/WX    TMP DP  RH WIND       PRES   REMARKS
ALPENA         MOCLDY    29  24  82 CALM      30.16R
BEAVER ISLAND  CLOUDY    30  25  82 CALM      30.15R
BELLAIRE       CLOUDY    32  27  83 CALM      30.15R
CADILLAC       CLOUDY    35  21  56 E3        30.11S
CHARLEVOIX     CLOUDY    33  23  66 SE3       30.17S
FRANKFORT      CLOUDY    40  19  43 E6        30.11F
GAYLORD        CLOUDY    30  21  69 CALM      30.13R
GRAYLING       CLOUDY    29  22  75 CALM      30.14S
HARBOR SPRINGS CLOUDY    30  25  81 CALM      30.15S
HOUGHTON LAKE  CLOUDY    31  26  82 E3        30.14R
MANISTEE       CLOUDY    37  23  56 E5        30.12S WCI  34
OSCODA         PTCLDY    26  19  75 CALM      30.15R
PELLSTON       CLOUDY    29  24  82 CALM      30.16R
ROGERS CITY    MOCLDY    32  26  77 W3        30.16S
TRAVERSE CITY  CLOUDY    34  27  75 CALM      30.13R
$$
MIZ007>008-015-241000-
EASTERN UPPER MICHIGAN

CITY           SKY/WX    TMP DP  RH WIND       PRES   REMARKS
KINROSS        PTCLDY    28  27  93 CALM      30.15R
MACKINAC ISLAN MOCLDY    32  24  72 N5        30.15R WCI  27
NEWBERRY       CLOUDY    31  24  73 E3        30.14R
S. S. MARIE    PTCLDY    29  24  82 CALM      30.14S
MUNISING         N/A     33  24  69 CALM      30.12S
$$
MIZ004>006-011>014-085-241000-
CENTRAL UPPER MICHIGAN

CITY           SKY/WX    TMP DP  RH WIND       PRES   REMARKS
MANISTIQUE     CLOUDY    30  27  87 MISG      30.13R
ESCANABA       CLOUDY    34  27  75 CALM      30.12S
MENOMINEE      CLOUDY    36  21  55 NE5       30.11S WCI  32
SAWYER-GWINN   CLOUDY    34  21  58 CALM      30.10S
$$
MIZ001>003-009>011-084-241000-
WESTERN UPPER MICHIGAN

CITY           SKY/WX    TMP DP  RH WIND       PRES   REMARKS
IRON MOUNTAIN  CLOUDY    35  22  58 CALM      30.08S
HOUGHTON       CLOUDY    36  22  56 SE3       30.06F
COPPER HARBOR    N/A     39  23  52 CALM      30.08R
IRONWOOD       CLOUDY    37  30  75 SE7       30.01S WCI  32
$$

ABBREVIATIONS USED IN REMARKS
   TC - TEMPERATURE IN CELSIUS
  WCI - WIND CHILL INDEX
   HX - HEAT INDEX
  VSB - VISIBILITY




USA.gov is the U.S. government's official web portal to all federal, state and local government web resources and services.